Stations météo

Publicité
Nancy/Ochey, France (7181): Température de l'air & dewpoint: 18.03.2019 00:00:00 - 24.03.2019 00:00:00 (CET)Nancy/Ochey, France (7181): Température de l'air 5cm: 18.03.2019 00:00:00 - 24.03.2019 00:00:00 (CET)Nancy/Ochey, France (7181): Température de l'air -20cm: 18.03.2019 00:00:00 - 24.03.2019 00:00:00 (CET)Nancy/Ochey, France (7181): Vitesse du vent & gusts: 18.03.2019 00:00:00 - 24.03.2019 00:00:00 (CET)Nancy/Ochey, France (7181): Direction du vent: 18.03.2019 00:00:00 - 24.03.2019 00:00:00 (CET)Nancy/Ochey, France (7181): reduced air pressure: 18.03.2019 00:00:00 - 24.03.2019 00:00:00 (CET)Nancy/Ochey, France (7181): visibility: 18.03.2019 00:00:00 - 24.03.2019 00:00:00 (CET)Nancy/Ochey, France (7181): Quantités de précipitations: 18.03.2019 00:00:00 - 24.03.2019 00:00:00 (CET)
Date & Time tt [°C] td [°C] tt 5cm [°C] tt -20cm [°C] ff [km/h] ff [knt] fx [km/h] fx [knt] dd ppp [hPa] vv [km] rr [mm]
24.03.2019 00:00:00 5,0 3,5 -1,7 7,4 5 3 10 6 NNW 1028,4 3,5 0,0
23.03.2019 23:00:00 5,7 3,2 -0,8 7,3 5 3 13 7 NNW 1028,6 4,3 0,0
23.03.2019 22:00:00 8,0 4,4 2,9 7,2 9 5 16 9 N 1028,3 6 0,0
23.03.2019 21:00:00 8,4 4,0 3,8 7,2 8 4 19 10 NNW 1028,3 7 0,0
23.03.2019 20:00:00 10,9 2,7 3,3 7,1 11 6 16 9 N 1027,7 9 0,0
23.03.2019 19:00:00 12,3 2,4 6,3 7,0 6 3 20 11 NNE 1027,2 10 0,0
23.03.2019 18:00:00 15,1 3,2 15,2 6,9 11 6 20 11 N 1026,6 13 0,0
23.03.2019 17:00:00 16,6 2,6 21,4 6,8 9 5 24 13 N 1026,3 13 0,0
23.03.2019 16:00:00 17,0 2,6 22,3 6,7 12 7 32 17 N 1026,3 15 0,0
23.03.2019 15:00:00 17,0 2,6 23,6 6,7 8 5 27 15 N 1026,7 17 0,0
23.03.2019 14:00:00 16,6 1,8 23,3 6,7 11 6 23 12 NW 1027,4 17 0,0
23.03.2019 13:00:00 15,9 1,2 22,9 6,7 10 5 23 13 NNW 1028,0 18 0,0
23.03.2019 12:00:00 15,5 2,3 22,0 6,7 12 6 22 12 WNW 1028,2 17 0,0
23.03.2019 11:00:00 14,3 2,8 20,2 6,7 11 6 19 10 NW 1028,6 9 0,0
23.03.2019 10:00:00 12,6 3,0 15,6 6,7 6 3 15 8 WNW 1028,9 12 0,0
23.03.2019 09:00:00 10,4 3,9 7,7 6,8 4 2 7 4 SW 1029,0 12 0,0
23.03.2019 08:00:00 8,1 2,1 3,7 6,8 7 4 11 6 SW 1029,2 12 0,0
23.03.2019 07:00:00 5,6 0,2 2,3 6,8 6 3 13 7 SSW 1029,4 14 0,0
23.03.2019 06:00:00 6,2 0,3 1,6 6,8 8 5 12 6 S 1028,9 13 0,0
23.03.2019 05:00:00 6,2 0,3 0,5 6,9 6 4 11 6 SSW 1029,1 14 0,0
23.03.2019 04:00:00 6,4 0,5 1,4 6,9 8 4 13 7 SSW 1029,1 15 0,0
23.03.2019 03:00:00 6,4 0,5 2,6 6,9 8 5 11 6 SSW 1029,2 15 0,0
23.03.2019 02:00:00 6,8 0,2 -0,1 6,8 7 4 10 6 SSW 1029,2 17 0,0
23.03.2019 01:00:00 8,0 0,7 0,6 6,8 6 3 11 6 SSW 1028,8 20 0,0
23.03.2019 00:00:00 7,6 0,3 0,7 6,8 8 4 10 5 SW 1029,1 21 0,0
22.03.2019 23:00:00 8,5 0,2 1,4 6,7 8 4 9 5 WSW 1028,8 13 0,0
22.03.2019 22:00:00 10,0 0,6 1,5 6,6 4 2 10 5 W 1028,6 17 0,0
22.03.2019 21:00:00 10,8 0,5 2,1 6,6 8 4 12 7 WSW 1028,3 21 0,0
22.03.2019 20:00:00 12,3 1,0 5,6 6,5 10 6 13 7 SSE 1027,7 27 0,0
22.03.2019 19:00:00 14,0 0,6 7,9 6,4 10 6 15 8 SSE 1027,4 27 0,0
22.03.2019 18:00:00 16,4 1,3 17,8 6,3 9 5 14 8 SSE 1026,9 25 0,0
22.03.2019 17:00:00 17,6 1,1 21,6 6,2 8 5 17 9 SE 1026,8 20 0,0
22.03.2019 16:00:00 18,5 1,5 23,5 6,1 5 3 16 8 S 1027,0 19 0,0
22.03.2019 15:00:00 17,3 0,9 23,0 6,1 7 4 23 12 S 1027,6 20 0,0
22.03.2019 14:00:00 16,9 0,9 23,5 6,1 5 3 17 9 SE 1028,0 20 0,0
22.03.2019 13:00:00 15,8 0,0 23,2 6,1 9 5 16 9 WSW 1028,6 19 0,0
22.03.2019 12:00:00 14,8 0,6 20,1 6,1 6 3 16 9 NNW 1029,1 17 0,0
22.03.2019 11:00:00 12,8 0,8 16,8 6,2 6 3 14 7 W 1029,8 19 0,0
22.03.2019 10:00:00 9,7 1,3 13,4 6,2 7 4 11 6 W 1030,4 19 0,0
22.03.2019 09:00:00 8,0 0,0 3,7 6,2 4 2 9 5 WSW 1030,6 20 0,0
22.03.2019 08:00:00 4,6 -0,6 -2,7 6,3 0 0 4 2 N 1031,2 20 0,0
22.03.2019 07:00:00 1,2 -2,2 -5,4 6,4 4 2 8 4 NNE 1031,4 24 0,0
22.03.2019 06:00:00 2,5 -1,7 -5,2 6,4 4 2 11 6 WSW 1031,0 22 0,0
22.03.2019 05:00:00 2,1 -2,2 -5,2 6,4 0 0 6 3 N 1031,1 34 0,0
22.03.2019 04:00:00 3,5 -1,9 -4,0 6,4 3 2 8 4 NNW 1031,0 32 0,0
22.03.2019 03:00:00 5,2 -1,7 -3,1 6,4 5 3 12 7 W 1030,7 33 0,0
22.03.2019 02:00:00 5,1 -2,3 -2,1 6,4 8 5 16 8 E 1030,9 40 0,0
22.03.2019 01:00:00 7,4 -1,8 2,1 6,4 8 4 18 10 E 1030,9 41 0,0
22.03.2019 00:00:00 6,5 -1,9 -0,8 6,3 9 5 15 8 ENE 1031,3 46 0,0
21.03.2019 23:00:00 6,5 -2,2 0,0 6,2 6 3 13 7 ENE 1031,6 47 0,0
21.03.2019 22:00:00 8,6 -1,8 5,8 6,2 10 5 16 8 ENE 1031,2 48 0,0
21.03.2019 21:00:00 10,0 -1,7 7,6 6,2 10 5 19 11 E 1031,1 48 0,0
21.03.2019 20:00:00 10,8 -1,6 5,5 6,1 10 6 18 10 E 1031,0 54 0,0
21.03.2019 19:00:00 12,5 -2,2 10,7 6,0 13 7 31 17 ENE 1030,2 59 0,0
21.03.2019 18:00:00 14,1 -3,2 14,5 6,0 20 11 40 22 NE 1029,9 50 0,0
21.03.2019 17:00:00 15,2 -2,7 17,5 5,9 21 12 40 21 NE 1029,8 33 0,0
21.03.2019 16:00:00 15,4 -3,0 19,0 5,9 23 12 40 22 NE 1029,8 51 0,0
21.03.2019 15:00:00 15,6 -2,9 18,5 5,9 20 11 42 23 NNE 1030,3 50 0,0
21.03.2019 14:00:00 14,4 -3,4 17,7 5,9 23 12 43 23 NE 1031,1 20 0,0
21.03.2019 13:00:00 13,5 -2,5 15,9 5,9 20 11 37 20 NE 1032,0 55 0,0
21.03.2019 12:00:00 11,7 -2,9 14,5 6,0 22 12 36 20 ENE 1032,7 48 0,0
21.03.2019 11:00:00 11,1 -3,1 13,0 6,0 22 12 42 23 ENE 1033,0 54 0,0
21.03.2019 10:00:00 9,8 -3,2 9,6 6,1 20 11 37 20 ENE 1033,3 60 0,0
21.03.2019 09:00:00 7,4 -2,6 3,9 6,1 18 10 30 16 ENE 1033,8 43 0,0
21.03.2019 08:00:00 3,6 -1,0 -4,0 6,1 5 3 11 6 N 1034,3 19 0,0
21.03.2019 07:00:00 -0,5 -3,0 -5,2 6,2 10 5 13 7 NNE 1034,9 20 0,0
21.03.2019 06:00:00 1,1 -3,2 -6,1 6,3 10 6 13 7 NNE 1034,5 39 0,0
21.03.2019 05:00:00 0,5 -3,2 -6,2 6,3 6 3 9 5 N 1034,5 32 0,0
21.03.2019 04:00:00 1,4 -3,5 -5,5 6,3 5 3 9 5 NNW 1034,2 44 0,0
21.03.2019 03:00:00 1,9 -3,6 -4,7 6,3 3 2 9 5 NNE 1034,4 47 0,0
21.03.2019 02:00:00 3,2 -3,2 -4,4 6,3 5 3 14 8 ENE 1034,6 56 0,0
21.03.2019 01:00:00 4,4 -2,9 -3,1 6,3 10 5 14 8 ENE 1034,6 55 0,0
21.03.2019 00:00:00 4,8 -3,0 -1,7 6,3 8 4 13 7 ENE 1035,0 48 0,0
20.03.2019 23:00:00 6,0 -2,9 1,3 6,2 9 5 16 8 E 1034,8 55 0,0
20.03.2019 22:00:00 6,0 -2,6 0,4 6,2 7 4 18 10 E 1034,7 51 0,0
20.03.2019 21:00:00 7,4 -2,4 3,1 6,2 8 4 9 5 NE 1034,3 58 0,0
20.03.2019 20:00:00 7,8 -2,3 2,0 6,1 8 5 13 7 NNE 1034,2 59 0,0
20.03.2019 19:00:00 8,8 -2,2 5,7 6,1 8 4 21 12 ENE 1033,9 59 0,0
20.03.2019 18:00:00 11,0 -3,5 11,0 6,0 14 8 25 14 NE 1033,4 53 0,0
20.03.2019 17:00:00 11,6 -1,9 14,2 6,0 16 9 29 15 NE 1032,9 51 0,0
20.03.2019 16:00:00 11,5 -3,5 13,2 6,0 14 8 26 14 NE 1033,3 45 0,0
20.03.2019 15:00:00 11,8 -1,4 14,6 6,0 14 8 29 16 E 1033,3 32 0,0
20.03.2019 14:00:00 11,6 -3,4 14,2 6,0 10 5 33 18 NE 1033,7 43 0,0
20.03.2019 13:00:00 10,9 -1,9 14,8 6,0 16 8 29 16 NE 1034,3 33 0,0
20.03.2019 12:00:00 10,2 -1,5 14,1 6,1 12 6 25 13 E 1034,6 20 0,0
20.03.2019 11:00:00 9,9 -1,2 14,1 6,1 10 6 18 10 NE 1034,6 20 0,0
20.03.2019 10:00:00 8,3 0,3 11,1 6,2 4 2 8 4 E 1034,8 33 0,0
20.03.2019 09:00:00 3,9 -0,3 0,9 6,3 3 1 6 3 NE 1035,3 33 0,0
20.03.2019 08:00:00 1,2 -1,9 -6,0 6,3 2 1 3 2 WNW 1035,3 27 0,0
20.03.2019 07:00:00 -1,4 -3,6 -7,0 6,4 3 2 6 4 SSE 1035,1 24 0,0
20.03.2019 06:00:00 -0,5 -3,0 -7,3 6,5 5 3 6 4 SW 1034,3 34 0,0
20.03.2019 05:00:00 -1,0 -3,2 -7,4 6,5 2 1 5 3 NNW 1034,3 30 0,0
20.03.2019 04:00:00 -0,5 -3,2 -6,4 6,5 3 2 6 3 SE 1034,0 30 0,0
20.03.2019 03:00:00 0,4 -3,2 -6,1 6,6 2 1 4 2 SSE 1033,5 34 0,0
20.03.2019 02:00:00 1,1 -3,0 -6,1 6,6 0 0 4 2 N 1033,8 24 0,0
20.03.2019 01:00:00 0,9 -3,6 -6,0 6,6 0 0 5 3 N 1033,8 40 0,0
20.03.2019 00:00:00 2,2 -3,3 -5,2 6,6 3 2 6 3 SW 1033,2 42 0,0
19.03.2019 23:00:00 2,7 -3,9 -4,8 6,6 3 2 9 5 NW 1033,0 60 0,0
19.03.2019 22:00:00 4,3 -3,2 -2,7 6,5 7 4 11 6 ENE 1032,2 55 0,0
19.03.2019 21:00:00 4,2 -4,3 -3,4 6,5 8 5 11 6 NE 1031,8 55 0,0
19.03.2019 20:00:00 5,1 -4,8 -0,9 6,5 7 4 13 7 N 1031,3 60 0,0
19.03.2019 19:00:00 6,1 -2,8 1,2 6,4 10 5 15 8 N 1030,7 59 0,0
19.03.2019 18:00:00 8,6 -1,0 9,7 6,4 10 5 22 12 N 1029,6 50 0,0
19.03.2019 17:00:00 9,6 -1,2 13,5 6,3 12 6 29 15 N 1028,8 32 0,0
19.03.2019 16:00:00 9,8 -1,9 15,5 6,3 12 7 27 14 N 1028,6 23 0,0
19.03.2019 15:00:00 9,9 -1,5 12,0 6,3 6 4 28 15 NNE 1028,5 20 0,0
19.03.2019 14:00:00 9,2 -1,0 10,3 6,3 11 6 22 12 N 1028,7 35 0,0
19.03.2019 13:00:00 8,5 0,7 11,5 6,3 8 4 16 8 N 1028,8 20 0,0
19.03.2019 12:00:00 6,4 4,4 12,2 6,4 5 3 16 9 WNW 1029,1 14 0,0
19.03.2019 11:00:00 3,0 2,7 4,6 6,4 8 4 16 9 NW 1029,9 4,9 0,0
19.03.2019 10:00:00 1,1 0,8 3,2 6,5 6 4 12 7 NW 1029,8 0,2 0,0
19.03.2019 09:00:00 0,0 -0,3 0,1 6,6 4 2 9 5 NW 1029,1 0,1 0,0
19.03.2019 08:00:00 -0,8 -1,1 -0,4 6,6 0 0 9 5 N 1029,0 0,1 0,0
19.03.2019 07:00:00 -0,2 -0,5 -4,6 6,7 6 4 14 8 NNW 1028,3 0,1 0,0
19.03.2019 06:00:00 -1,3 -1,7 -5,7 6,7 4 2 9 5 NE 1027,7 0,5 0,0
19.03.2019 05:00:00 -0,6 -1,0 -5,8 6,8 2 1 10 5 NNW 1027,1 0,1 0,0
19.03.2019 04:00:00 0,2 -0,2 -5,9 6,8 4 2 8 4 W 1026,6 3,9 0,0
19.03.2019 03:00:00 0,2 -0,4 -5,0 6,8 4 2 5 3 WSW 1026,4 10 0,0
19.03.2019 02:00:00 0,0 -0,9 -4,6 6,8 5 3 8 5 SW 1026,5 17 0,0
19.03.2019 01:00:00 1,3 0,3 -2,9 6,8 6 3 9 5 S 1026,1 19 0,0
19.03.2019 00:00:00 1,9 0,9 -0,5 6,8 8 4 10 5 SE 1025,7 25 0,0
18.03.2019 23:00:00 2,3 1,0 -2,0 6,8 6 3 11 6 WSW 1025,4 38 0,0
18.03.2019 22:00:00 1,9 0,0 -2,0 6,8 3 2 11 6 SW 1025,4 25 0,0
18.03.2019 21:00:00 3,8 0,8 0,5 6,8 10 6 14 7 SSW 1024,8 53 0,0
18.03.2019 20:00:00 4,7 1,5 2,8 6,8 7 4 14 7 WSW 1024,0 55 0,0
18.03.2019 19:00:00 5,0 0,9 2,9 6,7 12 7 20 11 WSW 1023,2 59 0,0
18.03.2019 18:00:00 7,0 1,1 6,9 6,7 11 6 23 13 WSW 1022,4 52 0,0
18.03.2019 17:00:00 7,2 1,7 7,6 6,7 14 8 27 14 WSW 1021,9 59 0,0
18.03.2019 16:00:00 8,3 1,2 10,3 6,7 6 4 23 12 WSW 1021,7 60 0,0
18.03.2019 15:00:00 6,8 1,3 7,2 6,7 11 6 24 13 W 1022,0 47 0,0
18.03.2019 14:00:00 6,2 1,3 5,4 6,7 13 7 24 13 W 1022,3 50 0,0
18.03.2019 13:00:00 5,0 1,5 5,1 6,8 19 10 27 15 W 1022,6 18 0,0
18.03.2019 12:00:00 5,9 4,1 4,6 6,8 13 7 31 17 WNW 1022,1 20 0,0
18.03.2019 11:00:00 3,9 2,9 4,0 6,8 13 7 27 15 W 1022,3 18 0,2
18.03.2019 10:00:00 3,4 2,7 3,3 6,9 14 8 29 15 WSW 1021,8 20 0,0
18.03.2019 09:00:00 3,2 2,5 2,6 6,9 19 10 29 15 WSW 1021,1 23 0,4
18.03.2019 08:00:00 2,8 2,2 2,5 7,0 15 8 24 13 SW 1020,4 6 0,4
18.03.2019 07:00:00 2,8 2,1 2,5 7,0 10 6 27 14 SW 1019,7 12 0,0
18.03.2019 06:00:00 2,8 1,9 2,1 7,0 15 8 21 11 WSW 1018,9 19 0,0
18.03.2019 05:00:00 2,7 1,7 2,0 7,1 6 4 26 14 WSW 1018,5 4,4 0,2
18.03.2019 04:00:00 2,5 1,5 0,8 7,2 18 10 26 14 SW 1018,1 55 0,0
18.03.2019 03:00:00 1,7 0,7 0,6 7,2 16 9 27 15 WSW 1018,3 52 0,0
18.03.2019 02:00:00 2,2 1,0 1,0 7,2 14 8 30 16 WSW 1018,1 60 0,0
18.03.2019 01:00:00 1,9 0,4 0,4 7,2 19 10 27 15 SSW 1017,9 60 0,0
18.03.2019 00:00:00 2,0 0,2 -0,3 7,3 16 9 26 14 SW 1017,6 60 0,0

tt = Température de l'air
td = dewpoint
tt 5cm = Température de l'air 5cm
tt -20cm = Température de l'air -20cm
ff = Vitesse du vent
fx = gusts
dd = Direction du vent
ppp = reduced air pressure
vv = visibility
rr = Quantités de précipitations

stations d'obs. à proximité